Tracking 31011 objects as of 12-Jul-2025
HD Live streaming from Space Station
objects crossing your sky now

STARLINK-1402

Track STARLINK-1402 now!
10-day predictions
STARLINK-1402 is classified as:


NORAD ID: 45685
Int'l Code: 2020-035AE
Perigee: 553.3 km
Apogee: 555.3 km
Inclination: 53.1 °
Period: 95.6 minutes
Semi major axis: 6925 km
RCS: Unknown
Launch date: June 4, 2020
Source: United States (US)
Launch site: AIR FORCE EASTERN TEST RANGE (AFETR)
Your satellite tracking list
Your tracking list is empty




NASA's NSSDC Master Catalog

Two Line Element Set (TLE):
1 45685U 20035AE  25193.56452710  .00000475  00000-0  50749-4 0  9993
2 45685  53.0547  48.9992 0001442  93.8610 266.2544 15.06400726282768
Source of the keplerian elements: AFSPC